GW6765 Weather Reports


Display with metric or nautical units.
time (UTC)temp
F
wind
direction
speed
MPH
gust
MPH
rain 1hr
in
rain 24hr
in
rain mn
in
humidity
%
barometer
mb
20260503050128 53 53 10.0 13.0 0.00 0.00 0.00 40 867.3
20260503040116 52 61 9.0 14.0 0.00 0.00 0.00 44 867.2
20260503031857 54 51 14.0 23.0 0.00 0.00 0.00 39 866.7
20260503020123 59 259 2.0 5.0 0.00 0.00 0.00 26 866.8
20260503015002 57 250 6.0 10.0 0.00 0.00 0.00 31 866.6
20260503001912 59 271 12.0 15.0 0.00 0.00 0.00 29 866.7
20260502233925 61 206 9.0 14.0 0.00 0.00 0.00 32 867.0
20260502220150 61 132 8.0 15.0 0.00 0.00 0.00 32 867.4
20260502210135 60 223 7.0 12.0 0.00 0.00 0.00 32 867.8
20260502200318 58 132 8.0 14.0 0.00 0.00 0.00 30 868.1
20260502192011 57 192 7.0 14.0 0.00 0.00 0.00 31 868.4
20260502181103 56 142 12.0 18.0 0.00 0.00 0.00 33 868.4
20260502170137 54 123 9.0 18.0 0.00 0.00 0.00 30 868.3
20260502162706 52 108 14.0 20.0 0.00 0.00 0.00 30 867.9
20260502150216 51 93 12.0 17.0 0.00 0.00 0.00 36 867.8
20260502140129 48 96 11.0 15.0 0.00 0.00 0.00 39 867.9
20260502130148 47 93 13.0 16.0 0.00 0.00 0.00 36 867.7
20260502120111 47 106 10.0 13.0 0.00 0.00 0.00 36 867.9
20260502110144 48 97 7.0 11.0 0.00 0.00 0.00 39 868.2
20260502100126 47 80 8.0 10.0 0.00 0.00 0.00 46 868.2
20260502090122 48 109 7.0 13.0 0.00 0.00 0.00 43 868.5
20260502070149 47 78 8.0 11.0 0.00 0.00 0.00 36 868.5
20260502060149 47 88 12.0 14.0 0.00 0.00 0.00 43 868.5